Regional Weather Roundup
Issued by NWS Grand Forks, ND

Home | Current Version | Previous Version | Text Only | Print | Product List | Glossary On
Versions: 1 2 3 4 5 6 7 8 9 10 11 12 13 14 15 16 17 18 19 20 21 22 23 24 25 26 27 28 29 30 31 32 33 34 35 36 37 38 39 40 41 42 43 44 45 46 47 48 49 50
000
ASUS43 KFGF 310631
RWRFGF
PRAIRIE TO PINES  WEATHER ROUNDUP
NATIONAL WEATHER SERVICE EASTERN NORTH DAKOTA/GRAND FORKS ND
100 AM CDT SAT JUL 31 2021

 **SATELLITE DATA USED TO AUGMENT SKY COVER AT AUTOMATED STATIONS**
 *****  WEATHER ACROSS EASTERN NORTH DAKOTA  *****

CITY           SKY/WX    TMP DP  RH WIND       PRES   REMARKS
GRAND FORKS    FAIR      67  57  70 NW8       30.01R HAZE
6HR MIN TEMP:  66; 6HR MAX TEMP:  84;

GRAND FRKS AFB CLEAR     66  63  89 NW7       30.02R SMOKE
GRAND FRKS NWS   N/A     69  59  71 N6        29.97R
DEVILS LAKE    FAIR      71  58  63 NE8       30.09R
6HR MIN TEMP:  71; 6HR MAX TEMP:  85;

FARGO          FAIR      68  61  78 SW12      30.02S HAZE
WAHPETON ARPT  FAIR      63  61  94 S6        30.05S FOG
$$

 ***** WEATHER ACROSS CENTRAL AND WESTERN NORTH DAKOTA  *****

CITY           SKY/WX    TMP DP  RH WIND       PRES   REMARKS
BISMARCK       FAIR      72  61  68 W6        30.12R SMOKE
6HR MIN TEMP:  72; 6HR MAX TEMP:  88;

MINOT          FAIR      69  52  54 NW12      30.13R
6HR MIN TEMP:  67; 6HR MAX TEMP:  90;

JAMESTOWN      FAIR      73  60  63 W12       30.05S HAZE
6HR MIN TEMP:  71; 6HR MAX TEMP:  82;

MINOT AFB      FAIR      68  40  36 N8        30.12R
GARRISON         N/A     64  54  69 N8        30.14R
WILLISTON      NOT AVBL
DICKINSON      FAIR      71  54  54 N9        30.17S
6HR MIN TEMP:  65; 6HR MAX TEMP:  89;

HETTINGER      FAIR      66  60  81 SW3       30.19S HAZE
6HR MIN TEMP:  66; 6HR MAX TEMP:  86;

$$

 *****  OTHER AIRPORT OBSERVATIONS IN OUR AREA  *****

CITY           SKY/WX    TMP DP  RH WIND       PRES   REMARKS
WALHALLA       FAIR      66  66 100 CALM      30.06R
GRAFTON AIRPOR FAIR      68  57  68 NW9         N/A
VALLEY CITY AR FAIR      68  66  94 SW9       30.06S FOG
CANDO            N/A     61  61 100 N6        30.13R FOG
CAVALIER APRT  MOCLDY    66  57  72 NW6       30.05R
GWINNER        CLOUDY    64  64 100 SW14      30.07S FOG
SHEYENNE NWR     N/A     66  63  90 SW7       29.95S
ROLLA          FAIR      61  52  72 NW9       30.15R
 ***** THE ABOVE OBSERVATIONS ARE NON NWS ARE NOT QUALITY
       CONTROLLED AND MAY MIS-REPORT RAIN FOR SNOW...
$$

  *****  WEATHER ACROSS NORTHERN MINNESOTA  *****

CITY           SKY/WX    TMP DP  RH WIND       PRES   REMARKS
FLAG ISLAND    NOT AVBL
WARROAD        NOT AVBL
ROSEAU         NOT AVBL
HALLOCK        NOT AVBL
THF RVR FALLS  FAIR      67  57  70 W6        30.01S HAZE
6HR MIN TEMP:  67; 6HR MAX TEMP:  83;

BAUDETTE       FAIR      61  60  97 W5        29.99S
6HR MIN TEMP:  61; 6HR MAX TEMP:  83; 6HR PCP:  0.07;

WASKISH        NOT AVBL
CROOKSTON      NOT AVBL
STEPHEN NDAWN    N/A     63  55  77 VRB3        N/A
GREENBUSH NDAW   N/A     61  57  88 VRB3        N/A
$$
  *****  WEATHER ACROSS CENTRAL AND WEST MINNESOTA  *****

CITY           SKY/WX    TMP DP  RH WIND       PRES   REMARKS
FOSSTON        NOT AVBL
BEMIDJI        NOT AVBL
PARK RAPIDS    CLOUDY    64  59  83 W7        30.04F HAZE
6HR MIN TEMP:  63; 6HR MAX TEMP:  75;

ELBOW LAKE     NOT AVBL
WADENA         NOT AVBL
DETROIT LAKES  NOT AVBL
MOORHEAD       NOT AVBL
FERGUS FALLS   NOT AVBL
MORRIS MN      NOT AVBL
STAPLES        NOT AVBL
$$
  *****  WEATHER ELSEWHERE ACROSS MINNESOTA  *****

CITY           SKY/WX    TMP DP  RH WIND       PRES   REMARKS
DULUTH         CLOUDY    64  59  83 W10       30.01F SMOKE
6HR MIN TEMP:  64; 6HR MAX TEMP:  76;

INTRNTL FALLS  MOCLDY    61  59  93 VRB3      29.97S
6HR MIN TEMP:  60; 6HR MAX TEMP:  79; 6HR PCP:  0.15;

ELY            NOT AVBL
CLOQUET        NOT AVBL
WHEATON        NOT AVBL
BRAINERD       CLOUDY    65  60  84 SW6       30.06S HAZE
6HR MIN TEMP:  64; 6HR MAX TEMP:  77;

HIBBING        CLOUDY    63  58  83 SW3       30.00S HAZE
6HR MIN TEMP:  63; 6HR MAX TEMP:  75;

ALEXANDRIA     FAIR      62  60  93 SW7       30.10S FOG
6HR MIN TEMP:  62; 6HR MAX TEMP:  72;

SAINT CLOUD    FAIR      60  57  89 CALM      30.08S FOG
6HR MIN TEMP:  60; 6HR MAX TEMP:  75;

MINNEAPOLIS    FAIR      66  58  75 W6        30.09R SMOKE
6HR MIN TEMP:  66; 6HR MAX TEMP:  77;

$$

  *****  WEATHER ACROSS SOUTH DAKOTA  *****

CITY           SKY/WX    TMP DP  RH WIND       PRES   REMARKS
SIOUX FALLS    CLOUDY    62  59  90 NE6       30.12F FOG
6HR MIN TEMP:  61; 6HR MAX TEMP:  64; 6HR PCP:  0.18;

BROOKINGS      FOG       59  59 100 SW3       30.14F VSB 1/4
WATERTOWN      FAIR      62  60  93 W7        30.13S FOG
6HR MIN TEMP:  61; 6HR MAX TEMP:  70;

HURON          FAIR      62  61  96 SW5       30.14S FOG
6HR MIN TEMP:  60; 6HR MAX TEMP:  68;

SISSETON         N/A     68  62  81 SW9       30.06F
ABERDEEN       FAIR      63  60  90 SW6       30.12S FOG
6HR MIN TEMP:  63; 6HR MAX TEMP:  76;

MITCHELL       FOG       58  58 100 NW3       30.14S VSB 1/4
PIERRE         FAIR      61  59  93 CALM      30.15S FOG
6HR MIN TEMP:  61; 6HR MAX TEMP:  68;

MOBRIDGE       FAIR      64  59  83 S5        30.11F HAZE
RAPID CITY     FAIR      60  58  92 CALM      30.22S SMOKE
6HR MIN TEMP:  60; 6HR MAX TEMP:  75;

$$

  *****  SOME WEATHER IN NEARBY STATES *****

CITY           SKY/WX    TMP DP  RH WIND       PRES   REMARKS
GLASGOW MT     FAIR      74  45  35 E10       30.19R
6HR MIN TEMP:  74; 6HR MAX TEMP:  95;

GREAT FALLS MT FAIR      77  49  37 E9        30.20R
6HR MIN TEMP:  77; 6HR MAX TEMP:  93;

CHEYENNE WY    CLOUDY    63  57  81 NE6       30.38R
6HR MIN TEMP:  63; 6HR MAX TEMP:  72; 6HR PCP:  0.01;

SCOTTSBLUFF NE FAIR      73  59  61 NW16G23   30.24S HAZE
6HR MIN TEMP:  72; 6HR MAX TEMP:  88; 6HR PCP: TRACE;

OMAHA NE       CLOUDY    73  68  84 NE7       30.02F
6HR MIN TEMP:  73; 6HR MAX TEMP:  83;

DES MOINES IA  LGT RAIN  68  67  96 E6        30.06F
6HR MIN TEMP:  68; 6HR MAX TEMP:  77; 6HR PCP:  1.00;

DAVENPORT IA   FAIR      65  62  90 SE3       30.12F
6HR MIN TEMP:  65; 6HR MAX TEMP:  69;

CHICAGO IL     CLOUDY    66  56  70 CALM      30.11S
6HR MIN TEMP:  65; 6HR MAX TEMP:  68; 6HR PCP: TRACE;

EAU CLAIRE WI  MOCLDY    65  62  90 SW7       30.07S
6HR MIN TEMP:  65; 6HR MAX TEMP:  74;

LA CROSSE WI   MOCLDY    66  62  87 S6        30.09S
6HR MIN TEMP:  66; 6HR MAX TEMP:  74;

$$

  *****  SOME NATIONAL WEATHER *****

CITY           SKY/WX    TMP DP  RH WIND       PRES   REMARKS
LA GUARDIA NY  FAIR      67  47  48 N13       29.95S
6HR MIN TEMP:  67; 6HR MAX TEMP:  78;

RALEIGH NC     FAIR      79  68  69 CALM      29.93S
6HR MIN TEMP:  75; 6HR MAX TEMP:  89;

ATLANTA GA     MOCLDY    79  71  76 W6        30.01S
6HR MIN TEMP:  79; 6HR MAX TEMP:  88; 6HR PCP: TRACE;

NEW ORLEANS LA PTCLDY    84  79  85 SW3       30.03F HX  96
6HR MIN TEMP:  83; 6HR MAX TEMP:  91;

OKLAHOMA CITY  FAIR      77  70  79 S6        30.05F
6HR MIN TEMP:  76; 6HR MAX TEMP:  93;

ALBUQUERQUE NM FAIR      74  48  39 SE8       30.27S
6HR MIN TEMP:  73; 6HR MAX TEMP:  88;

SALT LAKE CITY MOCLDY    78  60  53 CALM      30.15S
6HR MIN TEMP:  77; 6HR MAX TEMP:  88;

LOS ANGELES CA MOCLDY    63  60  90 W7        29.99F
6HR MIN TEMP:  62; 6HR MAX TEMP:  69;

BOISE ID       MOCLDY


USA.gov is the U.S. government's official web portal to all federal, state and local government web resources and services.